Weather History for Cape Race, NL

Change the Weather History Date:

Friday, November 2, 2012

  Actual Average Record
Temperature  
Mean Temperature 50 °F -  
Max Temperature 53 °F - - ()
Min Temperature 48 °F - - ()
Degree Days  
Heating Degree Days 14    
Moisture  
Dew Point 51 °F    
Average Humidity 99    
Maximum Humidity 100    
Minimum Humidity 97    
Precipitation  
Precipitation 0.24 in - - ()
Sea Level Pressure  
Sea Level Pressure 29.75 in    
Wind  
Wind Speed 13 mph ()    
Max Wind Speed 22 mph    
Max Gust Speed 30 mph    
T = Trace of Precipitation, MM = Missing Value Source: Averaged Metar Reports

Daily Weather History Graph

Daily Weather History Graph

Search for Another Location

Airport:

Trip Planner

Search our weather history database for the weather conditions in past years. The results will help you decide how hot, cold, wet, or windy it might be!

Date:

Astronomy

Nov. 02, 2012 Rise Set
Actual Time 7:46 AM NDT 5:44 PM NDT
Civil Twilight 7:14 AM NDT 6:16 PM NDT
Nautical Twilight 6:38 AM NDT 6:52 PM NDT
Astronomical Twilight 6:03 AM NDT 7:27 PM NDT
Moon 8:19 PM NDT (11/2) 11:10 AM NDT (11/2)
Length of Visible Light 11h 01m
Length of Day
9h 58m
Waning Gibbous, 88% of the Moon is Illuminated
Nov 2
Waning Gibbous
Nov 6
Last Quarter
Nov 13
New
Nov 20
First Quarter
Nov 28
Full

Hourly Weather History & Observations

Time (NDT) Temp. Dew Point Humidity Pressure Visibility Wind Dir Wind Speed Gust Speed Precip Events Conditions
12:30 AM 51 °F 50 °F 97% 29.86 in - ESE 19.6 mph - -  
12:30 AM 50.5 °F 50.4 °F 99% 29.86 in - ESE 19.6 mph 27.6 mph N/A   Unknown
1:30 AM 50.2 °F 50.0 °F 99% 29.84 in - SE 20.7 mph - N/A   Unknown
2:30 AM 50.4 °F 50.0 °F 99% 29.83 in - SE 17.3 mph 24.2 mph N/A   Unknown
3:30 AM 50 °F 50 °F 100% 29.82 in - SE 17.3 mph - -  
3:30 AM 50.4 °F 50.0 °F 99% 29.82 in - SE 17.3 mph 23.0 mph 0.23 in   Unknown
4:30 AM 50.9 °F 50.7 °F 99% 29.78 in - SE 20.7 mph 27.6 mph 0.05 in   Unknown
5:30 AM 50.9 °F 50.5 °F 99% 29.78 in - SE 18.4 mph 25.3 mph N/A   Unknown
6:30 AM 51 °F 51 °F 99% 29.76 in - SE 21.9 mph - -  
6:30 AM 51.3 °F 50.9 °F 99% 29.76 in - SE 21.9 mph 28.8 mph N/A   Unknown
7:30 AM 51.3 °F 50.9 °F 99% 29.75 in - SE 19.6 mph 29.9 mph 0.06 in   Unknown
8:30 AM 51.6 °F 51.3 °F 99% 29.74 in - SE 19.6 mph 27.6 mph N/A   Unknown
9:30 AM 52 °F 52 °F 100% 29.73 in - SSE 17.3 mph - -  
9:30 AM 52.3 °F 52.0 °F 99% 29.73 in - SSE 17.3 mph 25.3 mph 0.04 in   Unknown
10:30 AM 53.1 °F 52.9 °F 99% 29.73 in - SSE 16.1 mph 25.3 mph 0.21 in   Unknown
12:30 PM 52 °F 52 °F 98% 29.73 in - SSE 15.0 mph - -  
12:30 PM 51.8 °F 51.6 °F 99% 29.73 in - SSE 15.0 mph 20.7 mph N/A   Unknown
1:30 PM 51.6 °F 51.3 °F 99% 29.72 in - ESE 3.5 mph - N/A   Unknown
2:30 PM 52.5 °F 52.3 °F 99% 29.71 in - SSE 8.1 mph - N/A   Unknown
3:30 PM 52 °F 52 °F 100% 29.70 in - South 9.2 mph - -  
3:30 PM 52.2 °F 52.0 °F 99% 29.70 in - South 9.2 mph - N/A   Unknown
4:30 PM 51.6 °F 51.4 °F 99% 29.73 in - SSW 5.8 mph - N/A   Unknown
5:30 PM 51.8 °F 51.4 °F 99% 29.72 in - South 5.8 mph - N/A   Unknown
6:30 PM 51 °F 51 °F 100% 29.72 in - South 3.5 mph - -  
6:30 PM 51.4 °F 51.3 °F 99% 29.72 in - South 3.5 mph - N/A   Unknown
7:30 PM 51.4 °F 51.3 °F 99% 29.73 in - East 2.3 mph - N/A   Unknown
8:30 PM 50.9 °F 50.7 °F 99% 29.71 in - ESE 2.3 mph - N/A   Unknown
9:30 PM 51 °F 51 °F 98% 29.71 in - SE 4.6 mph - -  
9:30 PM 50.7 °F 50.5 °F 99% 29.71 in - SE 4.6 mph - N/A   Unknown
10:30 PM 51.1 °F 50.9 °F 99% 29.70 in - SSE 5.8 mph - N/A   Unknown
11:30 PM 51.3 °F 51.3 °F 100% 29.68 in - SE 3.5 mph - N/A   Unknown